SUOMI-100 (43804 NORAD) Tracking and Keplerian Element Data

This shows tracking and keplerian element data for the satellite.

Feedback or suggestion? Click here.




ElementValue
Catalog43804
NameSUOMI-100
Epoch Orbit6650
Epoch Day52.76158209
Epoch Year2020
RAAN126.2912
Inclination97.7158
Eccentricity0.0014348
Argument of Perigee216.1812
Mean Anonmoly143.844
Mean Motion14.95418179
Decay Rate4.29E-06
L11 43804U 18099AY 20052.76158209 .00000429 00000-0 43979-4 0 9994
L22 43804 97.7158 126.2912 0014348 216.1812 143.8440 14.95418179 66502

Live tracking and technical data element details for SUOMI-100 (NORAD 43804). SUOMI-100 can be tracked NOW for your location showing map with azimuth and elevation plus other details from your city location.

Track the satellite on the map from your city or location and see movement details for azimuth, elevation, latitude, longitude, range, height, and movement on the map or in text.







IsCatalogInMostPopularTable: catalog: 43804, numindb: 594
Update: records affected: 1



GetName: 43804 SUOMI-100

Hit Count: updated at: Sun, 23 Feb 2020 07:01:49 GMT